TimeCST,TemperatureF,Dew PointF,Humidity,Sea Level PressureIn,VisibilityMPH,Wind Direction,Wind SpeedMPH,Gust SpeedMPH,PrecipitationIn,Events,Conditions,WindDirDegrees,DateUTC
12:53 AM,43.0,26.1,51,29.96,10.0,South,6.9,-,N/A,,Clear,180,2013-02-04 06:53:00
1:53 AM,45.0,27.0,49,29.94,10.0,South,9.2,-,N/A,,Overcast,180,2013-02-04 07:53:00
2:53 AM,46.9,27.0,46,29.92,10.0,South,10.4,-,N/A,,Scattered Clouds,190,2013-02-04 08:53:00
4:53 AM,46.0,33.1,61,29.88,10.0,South,4.6,-,0.00,Rain,Light Rain,180,2013-02-04 10:53:00
5:01 AM,44.6,33.8,66,29.88,10.0,SSE,4.6,-,0.00,Thunderstorm,Overcast,160,2013-02-04 11:01:00
5:25 AM,44.6,35.6,71,29.90,8.0,North,-9999.0,-,0.04,Rain,Rain,0,2013-02-04 11:25:00
5:32 AM,46.4,33.8,62,29.89,7.0,SW,9.2,-,0.07,Rain-Thunderstorm,Heavy Thunderstorms and Rain,220,2013-02-04 11:32:00
5:50 AM,46.4,35.6,66,29.87,10.0,North,-9999.0,-,0.09,Rain-Thunderstorm,Light Rain,0,2013-02-04 11:50:00
5:53 AM,46.0,35.1,66,29.87,9.0,North,-9999.0,-,0.09,Rain-Thunderstorm,Light Rain,0,2013-02-04 11:53:00
6:04 AM,46.4,37.4,71,29.86,7.0,North,-9999.0,-,0.02,Rain-Thunderstorm,Thunderstorms and Rain,0,2013-02-04 12:04:00
6:53 AM,45.0,44.1,97,29.90,10.0,North,-9999.0,-,0.07,Rain,Light Rain,0,2013-02-04 12:53:00
7:53 AM,45.0,44.1,97,29.89,10.0,South,12.7,-,0.03,,Overcast,170,2013-02-04 13:53:00
8:53 AM,45.0,45.0,100,29.89,10.0,South,11.5,-,0.02,Rain,Light Rain,190,2013-02-04 14:53:00
9:53 AM,45.0,45.0,100,29.91,10.0,SSW,10.4,-,0.00,,Overcast,200,2013-02-04 15:53:00
10:53 AM,48.9,42.1,77,29.91,10.0,SSW,11.5,-,N/A,,Overcast,210,2013-02-04 16:53:00
11:53 AM,51.1,44.1,77,29.88,10.0,SSW,13.8,-,N/A,,Scattered Clouds,200,2013-02-04 17:53:00
12:53 PM,53.1,45.0,74,29.86,10.0,SW,12.7,21.9,N/A,,Clear,230,2013-02-04 18:53:00
1:53 PM,55.9,45.0,67,29.83,10.0,WSW,6.9,-,N/A,,Partly Cloudy,250,2013-02-04 19:53:00
2:53 PM,57.0,44.1,62,29.83,10.0,WNW,5.8,-,N/A,,Partly Cloudy,290,2013-02-04 20:53:00
3:53 PM,60.1,41.0,49,29.82,10.0,NW,5.8,-,N/A,,Clear,310,2013-02-04 21:53:00
4:53 PM,57.0,39.0,51,29.84,10.0,North,8.1,-,N/A,,Clear,350,2013-02-04 22:53:00
5:53 PM,52.0,39.0,61,29.86,10.0,West,3.5,-,N/A,,Clear,270,2013-02-04 23:53:00
6:53 PM,50.0,37.0,61,29.88,10.0,WNW,5.8,-,N/A,,Clear,300,2013-02-05 00:53:00
7:53 PM,45.0,35.1,68,29.91,10.0,North,6.9,-,N/A,,Clear,350,2013-02-05 01:53:00
8:53 PM,44.1,34.0,68,29.93,10.0,North,8.1,-,N/A,,Clear,350,2013-02-05 02:53:00
9:53 PM,41.0,34.0,76,29.95,10.0,North,5.8,-,N/A,,Clear,10,2013-02-05 03:53:00
10:53 PM,37.9,33.1,83,29.95,10.0,North,4.6,-,N/A,,Clear,360,2013-02-05 04:53:00
11:53 PM,36.0,32.0,86,29.95,10.0,Calm,Calm,-,N/A,,Clear,0,2013-02-05 05:53:00